This demonstration page uses our WeatherBlox Daily Observations layout. Learn more.

39.92423, -83.80882

Hourly Observations for August 25, 2017

Temp ( °F °C ) Dew Point ( °F °C ) Humidity (%) Winds ( mph kmh ) Pressure ( in mb ) Visibility ( mi km ) Precip ( " mm )
12:56 am 00:56 Cloudy 58 14.4 51 10.6 78 78 ENE 6 9 30.13 1020 10 16.0934 0 0
1:56 am 01:56 Cloudy 58 14.4 53 11.7 84 84 E 6 9 30.13 1020 10 16.0934 0 0
2:56 am 02:56 Partly Cloudy 57 13.9 50 10 78 78 NNE 5 7 30.15 1021 10 16.0934 0 0
3:56 am 03:56 Mostly Cloudy 55 12.8 51 10.6 87 87 ENE 5 7 30.16 1021 10 16.0934 0 0
4:56 am 04:56 Mostly Clear 54 12.2 51 10.6 90 90 NE 6 9 30.17 1022 10 16.0934 0 0
5:56 am 05:56 Clear 52 11.1 50 10 93 93 ENE 5 7 30.19 1022 10 16.0934 0 0
6:56 am 06:56 Mostly Clear 53 11.7 51 10.6 93 93 NNE 3 6 30.21 1023 10 16.0934 0 0
7:56 am 07:56 Sunny 53 11.7 51 10.6 93 93 Calm 30.22 1023 10 16.0934 0 0
8:56 am 08:56 Sunny 59 15 54 12.2 83 83 ENE 7 11 30.22 1024 10 16.0934 0 0
9:56 am 09:56 Sunny 63 17.2 54 12.2 73 73 ENE 8 13 30.23 1024 10 16.0934 0 0
10:56 am 10:56 Sunny 67 19.4 55 12.8 66 66 ENE 7 11 30.24 1024 10 16.0934 0 0
11:56 am 11:56 Mostly Cloudy 68 20 53 11.7 59 59 ESE 7 11 30.24 1024 10 16.0934 0 0
12:56 pm 12:56 Mostly Cloudy 68 20 52 11.1 57 57 ENE 8 13 30.24 1024 10 16.0934 0 0
1:56 pm 13:56 Partly Cloudy 70 21.1 51 10.6 51 51 VRB 3 6 30.24 1024 10 16.0934 0 0
2:56 pm 14:56 Mostly Cloudy 71 21.7 50 10 47 47 N 3 6 30.24 1024 10 16.0934 0 0
3:56 pm 15:56 Partly Cloudy 72 22.2 49 9.4 44 44 WSW 5 7 30.22 1023 10 16.0934 0 0
4:56 pm 16:56 Partly Cloudy 70 21.1 50 10 49 49 Calm 30.22 1023 10 16.0934 0 0
5:56 pm 17:56 Partly Cloudy 70 21.1 50 10 49 49 Calm 30.22 1023 10 16.0934 0 0
6:56 pm 18:56 Sunny 67 19.4 54 12.2 63 63 NE 5 7 30.22 1023 10 16.0934 0 0
7:56 pm 19:56 Sunny 65 18.3 56 13.3 73 73 E 3 6 30.23 1024 10 16.0934 0 0
8:56 pm 20:56 Clear 62 16.7 53 11.7 73 73 Calm 30.24 1024 10 16.0934 0 0
9:56 pm 21:56 Clear 56 13.3 53 11.7 90 90 NE 3 6 30.25 1024 10 16.0934 0 0
10:56 pm 22:56 Clear 57 13.9 52 11.1 83 83 ENE 6 9 30.26 1025 10 16.0934 0 0
11:56 pm 23:56 Clear 55 12.8 51 10.6 87 87 NE 8 13 30.27 1025 10 16.0934 0 0

Powered by AerisWeather